Location: Berlencourt
(50.2816°N, 2.4274°E)
Time: 15:47:54
(UTC+00:00)

Daily predictions for brighter satellites

Satellite Brightness Start Highest point End
(mag) Time Altitude Azimuth Time Altitude Azimuth Time Altitude Azimuth
SWAS 4.5 20:22:11 10° NNW 20:26:32 83° ENE 20:30:50 10° SSE
SL-24 R/B - RUBIN 2 4.4 20:25:30 10° NNW 20:29:41 43° NE 20:34:00 10° ESE
Cosmos 1869 Rocket 4.2 20:25:32 10° N 20:29:50 43° ENE 20:34:06 10° SE
Cosmos 1980 Rocket 2.5 20:24:45 10° S 20:30:07 48° ESE 20:35:33 10° NE
CARTOSAT-1 3.7 20:27:09 10° SSE 20:31:24 64° ENE 20:35:42 10° N
Cosmos 2228 Rocket 4.1 20:30:02 10° SSE 20:34:03 31° E 20:38:04 10° NNE
Cosmos 1464 Rocket 4.0 20:28:56 10° S 20:35:07 75° E 20:41:16 10° NNE
ARGOS Delta rocket 4.2 20:30:03 10° NNE 20:35:35 87° ESE 20:41:01 10° SSW
ISS -3.8 20:34:31 10° WNW 20:37:52 74° SSW 20:41:12 10° ESE
Cosmos 2344 3.6 20:30:48 10° SSW 20:38:05 58° ESE 20:45:37 10° NE
Cosmos 2322 Rocket 4.0 20:37:17 10° ESE 20:39:20 12° E 20:41:23 10° ENE
Cosmos 2369 3.7 20:34:12 10° SSW 20:39:45 63° ESE 20:45:22 10° NE
Cosmos 773 Rocket 4.1 20:34:43 10° NNW 20:39:58 74° ENE 20:45:09 10° SSE
Cosmos 1844 Rocket 4.4 20:35:38 10° NNW 20:40:01 23° NE 20:44:24 10° E
Cosmos 1536 3.5 20:36:26 10° NNW 20:40:23 55° W 20:44:20 10° S
Cosmos 1354 Rocket 4.2 20:35:35 10° S 20:40:41 52° ESE 20:45:50 10° NNE
Spot 2 Rocket 3.9 20:36:06 10° SE 20:40:57 52° ENE 20:45:53 10° N
SPOT 3 Rocket 3.6 20:36:59 10° SSE 20:42:08 80° ENE 20:47:19 10° NNW
ATLAS 2AS CENTAUR R/B 3.2 20:35:34 10° S 20:42:53 46° ESE 20:50:01 10° NE
Okean 1 3.6 20:41:23 10° S 20:45:15 50° E 20:49:10 10° NNE
H-2A R/B 3.1 20:41:28 10° N 20:45:25 46° WNW 20:49:21 10° SW
Cosmos 1092 Rocket 4.3 20:40:01 10° N 20:46:05 52° ENE 20:52:04 10° SSE
Cosmos 1486 Rocket 4.2 20:40:50 10° SSW 20:46:08 78° WNW 20:51:27 10° NNE
Nadezhda 4 Rocket 4.0 20:40:43 10° N 20:46:59 85° E 20:53:10 10° S
Meteor 1-19 Rocket 4.3 20:42:07 10° S 20:47:23 54° E 20:52:40 10° NNE
NOSS 3-4 (A) 3.6 20:41:40 10° SW 20:47:25 77° NW 20:53:46 10° NE
NOSS 3-4 (C) 3.6 20:41:42 10° SW 20:47:29 77° NW 20:53:50 10° NE
SL-4 R/B 3.9 20:44:46 10° W 20:48:21 23° SW 20:51:47 10° S
RESURS DK-1 3.0 20:45:09 10° S 20:48:54 35° ESE 20:52:41 10° NE
Cosmos 1697 Rocket 3.0 20:43:17 10° SW 20:48:56 73° WNW 20:54:38 10° NNE
Meteor 2-14 Rocket 4.5 20:43:50 10° N 20:49:56 78° ENE 20:56:03 10° SSE
USA 267 4.2 20:48:58 10° ENE 20:55:14 50° N 21:01:30 10° WNW
Cosmos 2297 Rocket 4.4 20:51:21 10° WNW 20:55:14 19° W 20:59:05 10° SW
ATLAS CENTAUR R/B 3.7 20:51:38 10° NNW 20:55:35 23° NNE 20:59:27 10° E
Cosmos 44 Rocket 3.3 20:52:29 10° NW 20:57:13 72° NE 21:01:28 13° SE
ARIANE 5 R/B 3.5 20:53:39 11° SE 20:57:33 38° ENE 21:01:44 10° N
Cosmos 2227 4.4 20:57:06 10° NNW 21:02:52 68° ENE 21:07:59 13° SE
Cosmos 1184 Rocket 3.7 21:01:41 10° SSW 21:04:35 45° WNW 21:07:31 10° N
Cosmos 158 Rocket 4.1 20:59:42 10° NNW 21:04:49 72° ENE 21:09:24 14° SSE
ATLAS 3B R/B 3.1 20:58:52 10° NW 21:06:10 68° NE 21:13:24 11° SE
Meteor 2-9 Rocket 4.4 21:00:29 10° NNW 21:06:18 81° W 21:11:56 10° S
NOSS 2-1 (E) 4.4 21:08:10 16° SE 21:09:00 17° ESE 21:11:13 10° ENE
Cosmos 1975 3.0 21:06:15 10° N 21:10:18 61° ENE 21:13:33 15° SSE
Cosmos 2026 Rocket 4.1 21:05:15 10° N 21:11:25 68° ENE 21:17:00 13° SSE
Cosmos 389 Rocket 4.4 21:08:38 10° NW 21:11:36 26° W 21:14:32 10° SSW
Cosmos 1503 Rocket 4.3 21:10:10 10° SSW 21:15:27 74° WNW 21:20:49 10° NNE
CZ-4B R/B 3.8 21:13:25 10° NNW 21:16:02 23° WNW 21:18:37 10° WSW
ERS-1 Rocket 3.0 21:12:32 13° SSE 21:17:06 87° ENE 21:22:11 10° NNW
Meteor 1-4 Rocket 4.1 21:14:42 10° NNE 21:17:31 22° ENE 21:19:36 14° ESE
CZ-4C R/B 4.1 21:11:41 10° NW 21:17:36 35° NNE 21:24:37 10° E
SL-16 R/B 3.0 21:13:28 12° SSE 21:18:01 33° ESE 21:23:01 10° NE
BREEZE-M (TANK) 4.4 21:13:28 10° WSW 21:18:04 84° S 21:39:13 10° E
Cosmos 1538 Rocket 4.1 21:14:56 10° NNW 21:20:12 70° ENE 21:24:18 16° SE
Helios 1A Rocket 3.4 21:19:01 11° S 21:22:44 56° WSW 21:26:42 10° NNW
CZ-2C R/B 3.9 21:18:26 10° NNE 21:23:11 63° ESE 21:27:47 11° S
Cosmos 1733 Rocket 3.4 21:20:11 10° N 21:24:35 54° ENE 21:27:44 18° SSE
Geosat 4.3 21:28:35 16° SE 21:32:34 60° NE 21:37:31 10° NNW
SJ 16-02 1.7 21:28:21 10° SSW 21:32:42 68° WNW 21:37:05 10° NNE
Meteor 1-18 Rocket 4.2 21:27:30 10° S 21:33:13 85° E 21:38:51 10° NNE
Cosmos 2292 Rocket 3.1 21:33:17 10° NNW 21:36:18 54° W 21:38:15 18° S
Cosmos 2278 3.7 21:32:46 10° SSW 21:38:26 88° WNW 21:44:11 10° NNE
Cosmos 1862 Rocket 3.9 21:37:31 19° SSE 21:40:26 49° E 21:44:47 10° NNE
BREEZE M DEB (TANK) 4.4 21:37:44 10° W 21:42:09 47° SSW 21:55:47 13° SE
Cosmos 2360 Rocket 3.4 21:40:42 18° SE 21:43:13 25° ESE 21:47:43 10° NE
Cosmos 1726 3.9 21:40:32 10° NNE 21:43:20 20° ENE 21:45:09 15° ESE
Cosmos 2263 Rocket 2.9 21:39:34 10° NW 21:44:52 44° WSW 21:49:11 15° S
Meteor 2-15 4.4 21:41:00 14° S 21:46:20 73° E 21:52:25 10° NNE
NOSS 2-1 (C) 2.9 21:46:44 15° SSW 21:49:12 49° SE 21:52:21 10° NE
SPOT 5 3.8 21:45:43 12° S 21:50:26 46° W 21:55:21 10° NNW
Terra 2.2 21:47:56 16° S 21:51:36 59° W 21:56:20 10° NNW
Cosmos 1441 Rocket 3.5 21:51:04 26° SSE 21:52:49 46° E 21:56:24 10° NNE
SAR-Lupe-1 4.1 21:49:17 10° NNE 21:52:51 61° ESE 21:54:47 25° S
Resurs 01 Rocket 4.3 21:51:35 10° WSW 21:53:07 12° W 21:54:40 10° WNW
Cosmos 1346 Rocket 2.8 21:50:23 17° SSW 21:53:28 89° W 21:57:30 10° NNE
Cosmos 2279 Rocket 4.0 21:53:29 17° S 21:58:22 72° E 22:04:35 10° NNE
NOSS 2-1 (D) 2.7 21:56:58 14° SSW 21:59:38 64° SE 22:02:52 10° NE
Cosmos 1680 Rocket 4.0 21:54:44 10° NNW 21:59:57 54° ENE 22:03:26 20° SE
USA 215 4.1 21:54:58 10° ENE 22:00:30 28° SE 22:03:42 20° S
Cosmos 990 Rocket 4.4 21:57:54 21° S 22:01:06 47° ESE 22:06:07 10° NNE
Iridium 2 3.6 21:58:43 10° N 22:02:30 83° E 22:04:23 28° S
Cosmos 1818 3.9 22:02:43 10° NW 22:08:10 64° NE 22:12:09 19° ESE
Cosmos 1066 Rocket 4.3 22:05:06 21° S 22:08:58 63° E 22:14:34 10° NNE
ADEOS Rocket 4.4 22:05:31 11° ESE 22:10:03 27° NE 22:15:04 10° N
Iridium 4 Rocket 3.9 22:06:54 10° N 22:11:15 44° E 22:13:43 24° SE
ISS -2.1 22:11:44 10° W 22:14:15 20° SW 22:14:21 20° SW
Cosmos 1980 Rocket 3.7 22:09:04 10° WSW 22:14:17 37° NW 22:19:34 10° NNE
Cosmos 1898 Rocket 4.0 22:11:50 24° SSE 22:14:29 42° ESE 22:19:28 10° NE
Okean 1-7 3.5 22:17:25 28° SSE 22:19:16 46° E 22:23:27 10° NNE
Iridium 51 4.1 22:21:00 37° SSE 22:22:10 62° E 22:25:43 10° N
Cosmos 2322 Rocket 2.1 22:18:02 17° SSW 22:22:20 70° ESE 22:27:55 10° NNE
Cosmos 1844 Rocket 2.6 22:19:04 10° NNW 22:24:42 89° SW 22:27:57 26° SSE
Cosmos 2180 Rocket 4.4 22:21:19 21° S 22:25:39 85° E 22:31:51 10° N
Okean 3 4.1 22:25:02 29° SE 22:26:33 41° E 22:30:33 10° NNE
Cosmos 1805 3.4 22:22:51 10° NNW 22:26:45 67° W 22:28:28 31° S
RESURS DK-1 4.2 22:23:13 10° WSW 22:26:55 31° NW 22:30:39 10° NNE
Cosmos 2333 Rocket 3.1 22:25:18 24° SE 22:27:21 31° ESE 22:32:16 10° NE
Cosmos 1461 4.1 22:26:50 10° NNW 22:30:40 37° NE 22:33:54 14° ESE
H-2A R/B 4.5 22:27:37 10° NNE 22:31:17 30° E 22:32:20 26° SE
BREEZE-M DEB (TANK) 3.3 22:29:14 10° W 22:31:41 29° SSW 22:31:52 28° SSW
ATLAS 2AS CENTAUR R/B 3.5 22:26:06 10° WSW 22:33:48 61° NW 22:41:11 10° NE
ARIANE 5 R/B 4.2 22:31:11 15° SW 22:34:04 28° W 22:37:59 10° NW
ATLAS CENTAUR R/B 1.8 22:30:14 10° NW 22:35:10 76° NE 22:37:50 26° SE
USA 267 3.5 22:31:20 10° ESE 22:37:51 73° NNE 22:44:23 10° WNW
Cosmos 1733 3.9 22:36:12 10° NNW 22:39:50 45° W 22:41:23 28° SSW
Cosmos 1766 3.2 22:37:58 10° N 22:41:56 85° W 22:43:23 38° S
Cosmos 2219 Rocket 3.0 22:44:47 26° SE 22:46:41 33° ESE 22:51:37 10° NE
Cosmos 1844 3.8 22:42:36 10° NNW 22:48:24 73° WSW 22:51:27 29° SSE
Cosmos 1703 Rocket 3.5 22:48:15 33° S 22:50:16 86° E 22:54:43 10° N
Meteor 1-4 Rocket 4.0 22:49:21 10° NNW 22:52:21 28° W 22:53:35 22° SW
Cosmos 372 Rocket 4.4 22:51:17 31° SSE 22:53:15 46° ESE 22:58:12 10° NE
ATLAS 3B R/B 3.6 22:49:56 10° NW 22:56:38 39° WSW 23:00:39 23° SSW
NOSS 2-1 (E) 4.1 22:55:59 10° WSW 22:59:01 40° NW 23:02:16 10° NNE
NOSS 3-1 (A) 4.3 22:53:20 10° NW 23:00:28 68° NE 23:08:57 10° SE
Cosmos 1655 Rocket 4.2 22:54:23 10° NNW 23:00:34 66° W 23:04:10 26° SSW
Cosmos 1707 3.7 23:00:36 30° ESE 23:01:27 34° E 23:05:00 10° NNE
SL-16 R/B 3.0 22:56:24 10° SW 23:01:55 51° NW 23:07:29 10° NNE
Cosmos 1782 Rocket 3.5 22:58:48 10° NNW 23:03:10 78° W 23:04:50 37° S
Cosmos 2237 4.5 22:58:24 13° SW 23:03:30 68° WNW 23:09:14 10° NNE
ERS-2 2.5 23:02:45 10° NNE 23:06:16 46° E 23:06:52 41° SE
SWARM C 4.5 23:06:26 55° SSE 23:07:04 78° E 23:10:28 10° N
CZ-4C R/B 3.0 23:00:07 10° NW 23:07:07 79° NE 23:14:17 15° SE
NOSS 3-1 (C) 4.0 23:00:32 10° NW 23:07:50 83° SW 23:14:02 21° SE
USA 290 4.2 23:10:46 18° E 23:10:46 18° E 23:12:41 10° ENE
Cosmos 1238 Rocket 4.0 23:08:59 10° NNE 23:11:20 21° ENE 23:11:57 20° E
SJ 16-02 4.3 23:10:24 10° WNW 23:12:09 12° NW 23:13:55 10° NNW
SWARM A 4.2 23:12:49 57° S 23:13:26 88° E 23:16:51 10° N
Gblst 52 Del rocket 4.2 23:08:06 10° WSW 23:14:29 69° SSE 23:20:11 10° ENE
Cosmos 2237 Rocket 4.0 23:14:56 14° ESE 23:16:44 16° E 23:20:07 10° ENE
Cosmos 1470 2.6 23:14:05 10° NNW 23:17:59 84° W 23:19:01 47° S
Cosmos 1726 3.1 23:15:04 10° NNW 23:18:27 35° W 23:19:26 29° SW
Cosmos 1300 Rocket 3.5 23:14:56 10° N 23:19:19 85° ENE 23:20:51 40° SSE
COSMOS 2428 3.3 23:17:54 30° SSE 23:20:00 42° ESE 23:25:19 10° NE
Cosmos 2151 Rocket 4.3 23:17:51 10° N 23:22:06 44° ENE 23:23:57 28° SE
Cosmos 2242 Rocket 4.0 23:21:24 29° SSW 23:23:33 60° WNW 23:28:04 10° N
ALOS 2 2.6 23:22:00 39° S 23:23:33 70° WSW 23:27:58 10° NNW
Cosmos 1242 Rocket 2.8 23:21:41 10° N 23:25:15 57° ENE 23:26:07 43° SE
Cosmos 1937 Rocket 3.6 23:22:46 25° SSW 23:25:52 75° WNW 23:31:11 10° NNE
Okean 2 Rocket 3.5 23:21:45 10° N 23:26:14 56° ENE 23:28:05 32° SE
Cosmos 2360 Rocket 2.5 23:22:25 17° SW 23:26:45 65° WNW 23:32:25 10° NNE
Cosmos 1943 Rocket 4.4 23:24:07 10° NNW 23:28:27 22° NE 23:32:47 10° E
Cosmos 405 Rocket 4.2 23:28:20 22° ESE 23:29:04 23° E 23:32:07 10° NE
In-Cosmos 22 4.3 23:29:31 32° SSE 23:32:01 61° E 23:37:25 10° NNE
Cosmos 1437 Rocket 4.2 23:28:41 10° N 23:32:01 29° ENE 23:33:33 21° ESE
Cosmos 2333 4.1 23:29:02 27° SSW 23:32:14 90° WNW 23:37:56 10° NNE
Cosmos 1908 3.8 23:29:57 10° N 23:33:38 46° ENE 23:34:48 34° ESE
Cosmos 1867 3.9 23:33:43 34° S 23:35:40 48° ESE 23:40:56 10° NE
Meteor 1-21 4.3 23:34:35 32° S 23:37:23 72° E 23:43:11 10° NNE
Cosmos 1626 2.8 23:37:36 37° ESE 23:38:16 41° E 23:41:45 10° NNE
Cosmos 1842 4.0 23:38:57 31° SW 23:40:22 45° WNW 23:44:07 10° N
Cosmos 1953 3.5 23:39:22 10° N 23:43:05 35° ENE 23:44:46 24° ESE
USA 215 3.2 23:37:34 10° ENE 23:44:10 79° SE 23:50:45 10° SW
Cosmos 2278 Rocket 2.5 23:39:12 10° NNW 23:44:52 63° ENE 23:48:51 20° SE
Cosmos 1674 2.6 23:50:45 51° SSE 23:51:34 73° E 23:55:20 10° NNE
Sich 1 Rocket 3.6 23:48:09 10° NNW 23:52:32 67° W 23:54:00 40° SSW
